DW9497 Weather Reports


time (UTC)temp
F
wind
direction
speed
knots
gust
knots
rain 1hr
in
rain 24hr
in
rain mn
in
humidity
%
barometer
mb
20260902123014 62 92 2.6 7.0 0.00 0.00 0.00 89 1013.3
20260902121511 62 111 2.6 7.8 0.00 0.00 0.00 89 1013.5
20260902120009 61 94 2.6 7.8 0.00 0.00 0.00 88 1013.7
20260902114507 62 124 0.9 4.3 0.00 0.00 0.00 88 1014.0
20260902113013 61 133 1.7 7.0 0.00 0.00 0.00 90 1014.1
20260902111502 61 103 1.7 7.0 0.00 0.00 0.00 91 1014.4
20260902104557 60 124 0.9 4.3 0.00 0.00 0.00 91 1015.0
20260902103056 60 101 1.7 4.3 0.00 0.00 0.00 91 1015.1
20260902101556 61 141 0.0 5.2 0.00 0.00 0.00 91 1015.1
20260902100053 60 97 1.7 6.1 0.00 0.00 0.00 91 1015.3
20260902094555 60 143 0.9 4.3 0.00 0.00 0.00 92 1015.4
20260902093048 59 107 0.9 3.5 0.00 0.00 0.00 92 1015.5
20260902091547 59 100 1.7 3.5 0.00 0.00 0.00 92 1015.7
20260902090041 59 123 1.7 4.3 0.00 0.00 0.00 92 1015.8
20260902084539 59 139 0.9 3.5 0.00 0.00 0.00 92 1016.0
20260902083035 59 115 0.9 3.5 0.00 0.00 0.00 92 1016.1
20260902081532 58 114 0.9 4.3 0.00 0.00 0.00 92 1016.1
20260902080034 58 95 0.0 3.5 0.00 0.00 0.00 92 1016.3
20260902074531 58 106 0.0 2.6 0.00 0.00 0.00 92 1016.3
20260902073031 58 115 0.0 2.6 0.00 0.00 0.00 92 1016.3
20260902071530 58 110 0.0 2.6 0.00 0.00 0.00 92 1016.2
20260902070029 58 120 0.0 0.9 0.00 0.00 0.00 91 1016.3
20260902064529 58 122 0.0 1.7 0.00 0.00 0.00 91 1016.2
20260902063052 58 114 0.0 0.9 0.00 0.00 0.00 90 1016.1
20260902061529 58 120 0.0 0.9 0.00 0.00 0.00 89 1016.3
20260902060025 58 124 0.0 1.7 0.00 0.00 0.00 89 1016.2
20260902054524 58 114 0.0 1.7 0.00 0.00 0.00 88 1016.1
20260902053028 58 122 0.0 0.9 0.00 0.00 0.00 88 1016.1
20260902051536 58 109 0.0 0.9 0.00 0.00 0.00 88 1016.3
20260902050029 58 107 0.0 0.9 0.00 0.00 0.00 88 1016.3
20260902044521 58 115 0.0 1.7 0.00 0.00 0.00 88 1016.3
20260902043021 58 78 0.0 1.7 0.00 0.00 0.00 87 1016.4
20260902041539 58 93 0.0 0.9 0.00 0.00 0.00 87 1016.3
20260902040025 58 97 0.0 1.7 0.00 0.00 0.00 87 1016.3
20260902034517 58 124 0.0 2.6 0.00 0.00 0.00 88 1016.5
20260902033017 58 94 0.0 1.7 0.00 0.00 0.00 88 1016.5
20260902031515 57 110 0.0 0.9 0.00 0.00 0.00 88 1016.5
20260902030013 57 95 0.0 3.5 0.00 0.00 0.00 88 1016.7
20260902024513 57 116 0.0 1.7 0.00 0.00 0.00 88 1016.7
20260902023010 57 122 0.0 3.5 0.00 0.00 0.00 88 1016.9
20260902021510 57 101 0.0 1.7 0.00 0.00 0.00 88 1016.9
20260902020009 57 128 0.0 1.7 0.00 0.00 0.00 88 1017.0
20260902014518 57 102 0.0 1.7 0.00 0.00 0.00 88 1017.0
20260902013009 57 116 0.0 0.9 0.00 0.00 0.00 87 1017.1
20260902011512 57 110 0.0 0.9 0.00 0.00 0.00 87 1017.0
20260902010005 57 100 0.0 0.9 0.00 0.00 0.00 86 1017.1
20260902004502 58 114 0.0 0.0 0.00 0.00 0.00 85 1017.1
20260902003134 58 93 0.0 1.7 0.00 0.00 0.00 84 1017.1
20260902001601 58 84 0.0 0.9 0.00 0.00 0.00 85 1017.2
20260902000104 58 112 0.0 0.0 0.00 0.00 0.00 85 1017.2
20260901234557 58 106 0.0 0.0 0.00 0.00 0.00 84 1017.3
20260901233056 58 119 0.0 1.7 0.00 0.00 0.00 83 1017.3
20260901231602 58 311 0.0 0.9 0.00 0.00 0.00 83 1017.2
20260901230053 59 110 0.0 0.9 0.00 0.00 0.00 82 1017.2
20260901224552 59 108 0.0 0.9 0.00 0.00 0.00 81 1017.3
20260901223051 59 300 0.0 2.6 0.00 0.00 0.00 81 1017.4
20260901221550 60 106 0.0 1.7 0.00 0.00 0.00 79 1017.4
20260901220049 60 110 0.0 1.7 0.00 0.00 0.00 78 1017.6
20260901214549 61 103 0.0 2.6 0.00 0.00 0.00 77 1017.5
20260901213047 61 104 0.0 1.7 0.00 0.00 0.00 77 1017.6
20260901211547 61 103 0.0 0.9 0.00 0.00 0.00 77 1017.7
20260901204546 61 122 0.0 0.9 0.00 0.00 0.00 77 1017.6
20260901203045 61 122 0.0 0.9 0.00 0.00 0.00 76 1017.7
20260901201546 61 94 0.0 3.5 0.00 0.00 0.00 76 1017.8
20260901200044 61 120 0.0 0.9 0.00 0.00 0.00 76 1017.9
20260901194544 62 105 0.0 0.9 0.00 0.00 0.00 76 1017.9
20260901193043 62 96 0.0 0.9 0.00 0.00 0.00 75 1017.6
20260901191542 62 120 0.0 0.9 0.00 0.00 0.00 74 1017.6
20260901190105 63 107 0.0 1.7 0.00 0.00 0.00 74 1017.6
20260901184541 63 275 0.0 2.6 0.00 0.00 0.00 72 1017.6
20260901183040 64 101 0.0 3.5 0.00 0.00 0.00 72 1017.6
20260901181542 64 112 0.0 2.6 0.00 0.00 0.00 71 1017.6
20260901180038 65 281 0.0 2.6 0.00 0.00 0.00 68 1017.5
20260901174547 65 273 0.0 6.1 0.00 0.00 0.00 66 1017.6
20260901173036 65 297 1.7 5.2 0.00 0.00 0.00 65 1017.7
20260901171540 66 288 0.0 3.5 0.00 0.00 0.00 66 1017.5
20260901170035 66 290 0.0 3.5 0.00 0.00 0.00 64 1017.6
20260901164539 66 264 2.6 7.8 0.00 0.00 0.00 63 1017.6
20260901163100 66 214 0.9 4.3 0.00 0.00 0.00 65 1017.6
20260901161535 66 43 1.7 7.0 0.00 0.00 0.00 65 1017.7
20260901160034 67 228 0.9 4.3 0.00 0.00 0.00 65 1017.7
20260901154547 67 169 0.0 8.7 0.00 0.00 0.00 63 1017.9
20260901153038 67 263 0.9 4.3 0.00 0.00 0.00 62 1017.7
20260901151534 68 271 1.7 7.0 0.00 0.00 0.00 59 1017.6
20260901150030 68 7 0.9 6.1 0.00 0.00 0.00 61 1017.8
20260901144529 68 291 0.9 10.4 0.00 0.00 0.00 60 1017.8
20260901143029 69 252 1.7 6.1 0.00 0.00 0.00 60 1017.6
20260901141528 69 283 1.7 7.0 0.00 0.00 0.00 58 1017.7
20260901140027 69 280 0.0 7.0 0.00 0.00 0.00 61 1017.6
20260901134527 69 259 1.7 11.3 0.00 0.00 0.00 59 1017.6
20260901133026 70 313 1.7 5.2 0.00 0.00 0.00 59 1017.6
20260901131526 71 249 0.9 7.0 0.00 0.00 0.00 58 1017.4
20260901130024 72 266 1.7 6.1 0.00 0.00 0.00 58 1017.5
20260901124522 71 261 1.7 7.8 0.00 0.00 0.00 58 1017.7